This demonstration page uses our WeatherBlox Daily Observations layout. Learn more.

Left ArrowRight Arrow

39.01783, -85.05884

Hourly Observations for November 25, 2021

Temp ( °F °C ) Dew Point ( °F °C ) Humidity (%) Winds ( mph kmh ) Pressure ( in mb ) Visibility ( mi km ) Precip ( " mm )
12:52 am 00:52 Cloudy 50 10 27 -2.8 41 41 S 9 15 30.13 1020 10 16 N/A
1:52 am 01:52 Cloudy 52 11.1 26 -3.3 37 37 SSW 9 15 30.11 1020 10 16 N/A
2:52 am 02:52 Cloudy 51 10.6 27 -2.8 39 39 SSW 10 17 30.11 1020 10 16 N/A
3:52 am 03:52 Cloudy 51 10.6 29 -1.7 43 43 SSW 12 19 30.09 1019 10 16 N/A
4:52 am 04:52 Cloudy 51 10.6 32 undefined 48 48 SSW 16 26 30.07 1018 10 16 N/A
5:52 am 05:52 Cloudy with Light Rain 50 10 36 2.2 59 59 SSW 14 22 30.06 1018 10 16 0.00 0.00
6:52 am 06:52 Cloudy 48 8.9 38 3.3 68 68 SW 10 17 30.07 1018 10 16 0.01 0.25
7:42 am 07:42 Cloudy with Light Rain 47 8.3 40 4.4 77 77 SSW 10 17 30.10 1019 7 11 0.00 0.00
7:52 am 07:52 Cloudy with Light Rain 46 7.8 40 4.4 79 79 SW 12 19 30.07 1018 8 13 0.00 0.00
8:24 am 08:24 Cloudy with Light Rain 46 7.8 42 5.6 86 86 SSW 12 19 30.10 1019 5 8 0.02 0.51
8:37 am 08:37 Cloudy with Light Rain 46 7.8 42 5.6 86 86 SSW 15 24 30.11 1020 6 10 0.03 0.76
8:52 am 08:52 Cloudy with Light Rain 45 7.2 42 5.6 90 90 SSW 10 17 30.08 1019 4 6 0.03 0.76
9:52 am 09:52 Cloudy with Light Rain 45 7.2 42 5.6 90 90 SSW 15 24 30.06 1018 6 10 0.09 2.29
10:52 am 10:52 Cloudy with Light Rain 45 7.2 42 5.6 90 90 SSW 10 17 30.06 1018 7 11 0.01 0.25
11:18 am 11:18 Cloudy with Drizzle 45 7.2 42 5.6 90 90 SSW 10 17 30.07 1018 3 4 0.00 0.00
11:52 am 11:52 Cloudy with Light Rain 45 7.2 42 5.6 90 90 SW 10 17 30.05 1018 2 3 0.00 0.00
12:41 pm 12:41 Cloudy with Mist and Fog 46 7.8 43 6.1 89 89 SW 9 15 30.04 1017 2 3 0.01 0.25
12:52 pm 12:52 Cloudy with Drizzle 46 7.8 43 6.1 89 89 SW 13 20 30.02 1017 2 3 0.01 0.25
1:52 pm 13:52 Cloudy with Mist and Fog 46 7.8 43 6.1 89 89 SW 14 22 30.01 1016 3 4 0.00 0.00
2:21 pm 14:21 Cloudy with Mist and Fog 46 7.8 44 6.7 93 93 SW 9 15 30.02 1017 1 2 N/A
2:52 pm 14:52 Cloudy with Mist and Fog 46 7.8 44 6.7 93 93 WSW 10 17 29.99 1016 1 2 N/A
3:09 pm 15:09 Cloudy with Mist and Fog 46 7.8 44 6.7 93 93 SW 8 13 30.01 1016 1 1 N/A
3:52 pm 15:52 Cloudy with Mist and Fog 47 8.3 44 6.7 90 90 SW 9 15 29.99 1016 1 1 N/A
4:28 pm 16:28 Cloudy with Drizzle 47 8.3 44 6.7 90 90 W 15 24 30.03 1017 2 3 0.00 0.00
4:36 pm 16:36 Cloudy 47 8.3 43 6.1 86 86 W 14 22 30.03 1017 8 13 0.00 0.00
4:43 pm 16:43 Cloudy 47 8.3 43 6.1 86 86 WNW 15 24 30.04 1017 8 13 0.00 0.00
4:52 pm 16:52 Cloudy 47 8.3 43 6.1 86 86 WNW 15 24 30.02 1017 7 11 0.00 0.00
5:10 pm 17:10 Cloudy 45 7.2 40 4.4 83 83 WNW 15 24 30.05 1018 7 11 N/A
5:52 pm 17:52 Cloudy 43 6.1 38 3.3 82 82 WNW 14 22 30.04 1017 7 11 N/A
6:04 pm 18:04 Cloudy 43 6.1 39 3.9 86 86 WNW 12 19 30.07 1018 7 11 N/A
6:52 pm 18:52 Cloudy 42 5.6 37 2.8 82 82 WNW 15 24 30.06 1018 7 11 N/A
7:52 pm 19:52 Cloudy 41 5 37 2.8 86 86 WNW 16 26 30.07 1018 8 13 N/A
8:13 pm 20:13 Cloudy with Light Rain 41 5 37 2.8 86 86 WNW 18 30 30.10 1019 7 11 0.00 0.00
8:31 pm 20:31 Cloudy 40 4.4 36 2.2 86 86 WNW 18 30 30.09 1019 7 11 0.00 0.00
8:52 pm 20:52 Cloudy with Mist and Fog 39 3.9 35 1.7 86 86 WNW 17 28 30.08 1019 6 10 0.00 0.00
9:52 pm 21:52 Cloudy 39 3.9 34 1.1 82 82 WNW 20 31 30.09 1019 7 11 0.00 0.00
10:03 pm 22:03 Cloudy 38 3.3 34 1.1 86 86 WNW 21 33 30.11 1020 7 11 N/A
10:52 pm 22:52 Cloudy with Light Rain 37 2.8 32 undefined 82 82 WNW 20 31 30.10 1019 8 13 0.00 0.00
11:05 pm 23:05 Cloudy with Light Rain 37 2.8 32 undefined 82 82 WNW 20 31 30.14 1021 9 14 0.00 0.00
11:49 pm 23:49 Cloudy 36 2 28 -2 75 75 WNW 14 22 30.14 1021 10 16 0.00 0.00
11:52 pm 23:52 Cloudy 36 2.2 29 -1.7 76 76 WNW 14 22 30.11 1020 10 16 0.00 0.00

Powered by AerisWeather